Location: Buchdorf
(48.7842°N, 10.8275°E)
Time: 00:48:22
(UTC+00:00)

N. Korean satellite - Pass Details

Date: 10 March 2021
Orbit: 453 x 499 km, 97.2° (Epoch: 11 April)

Event Time Altitude Azimuth Distance (km) Brightness Sun altitude
Rises 03:49:19 0° 27° (NNE) 2,548 10.9 -18.9°
Reaches altitude 10° 03:51:54 10° 47° (NE) 1,672 10.2 -18.5°
Maximum altitude 03:54:25 18° 92° (E) 1,261 9.6 -18.1°
Drops below altitude 10° 03:56:57 10° 137° (SE) 1,679 9.7 -17.7°
Sets 03:59:32 0° 157° (SSE) 2,563 10.4 -17.3°
